• In Sweden
  • List of Countries
  • For 7 days
  • Water Temperature
  • Satellite Maps
  • Weather Map
  • Weather Widgets
  • user-avatar
    Login

    Hourly Weather Kishkino

    Today, 25 September, Tuesday

    Time Temperature Precipitation Wind Pressure Humidity
    00:00 +9°C° 0.1 mm 8 mps 728 mmHg 85%
    01:00 +9°C° 0 mm 8 mps 729 mmHg 85%
    02:00 +7°C° 0 mm 8 mps 729 mmHg 84%
    03:00 +7°C° 0 mm 6 mps 729 mmHg 84%
    04:00 +7°C° 0 mm 6 mps 729 mmHg 84%
    05:00 +7°C° 0 mm 6 mps 729 mmHg 84%
    06:00 +6°C° 0 mm 7 mps 730 mmHg 83%
    07:00 +6°C° 0 mm 7 mps 730 mmHg 83%
    08:00 +6°C° 0 mm 7 mps 731 mmHg 82%
    09:00 +6°C° 0 mm 7 mps 731 mmHg 82%
    10:00 +6°C° 0 mm 7 mps 732 mmHg 80%
    11:00 +8°C° 0 mm 7 mps 732 mmHg 78%
    12:00 +7°C° 0 mm 8 mps 733 mmHg 76%
    13:00 +8°C° 0 mm 7 mps 734 mmHg 74%
    14:00 +8°C° 0 mm 7 mps 734 mmHg 73%
    15:00 +8°C° 0 mm 7 mps 735 mmHg 71%
    16:00 +8°C° 0 mm 7 mps 736 mmHg 72%
    17:00 +7°C° 0 mm 6 mps 736 mmHg 73%
    18:00 +7°C° 0 mm 6 mps 737 mmHg 74%
    19:00 +5°C° 0 mm 6 mps 738 mmHg 74%
    20:00 +6°C° 0 mm 5 mps 738 mmHg 74%
    21:00 +6°C° 0 mm 5 mps 739 mmHg 75%
    22:00 +6°C° 0 mm 5 mps 739 mmHg 76%
    23:00 +5°C° 0 mm 5 mps 740 mmHg 77%

    Tomorrow, 26 September, Wednesday

    Time Temperature Precipitation Wind Pressure Humidity
    00:00 +5°C° 0 mm 5 mps 740 mmHg 78%
    01:00 +5°C° 0 mm 5 mps 741 mmHg 80%
    02:00 +4°C° 0 mm 4 mps 742 mmHg 82%
    03:00 +4°C° 0 mm 4 mps 742 mmHg 83%
    04:00 +3°C° 0 mm 4 mps 743 mmHg 85%
    05:00 +3°C° 0 mm 4 mps 743 mmHg 86%
    06:00 +1°C° 0 mm 4 mps 744 mmHg 88%
    07:00 +3°C° 0 mm 4 mps 744 mmHg 83%
    08:00 +3°C° 0 mm 5 mps 745 mmHg 79%
    09:00 +3°C° 0 mm 5 mps 746 mmHg 74%
    10:00 +6°C° 0 mm 5 mps 746 mmHg 68%
    11:00 +7°C° 0 mm 5 mps 746 mmHg 62%
    12:00 +8°C° 0 mm 5 mps 747 mmHg 55%
    13:00 +8°C° 0 mm 5 mps 747 mmHg 53%
    14:00 +9°C° 0 mm 5 mps 747 mmHg 51%
    15:00 +9°C° 0 mm 5 mps 746 mmHg 49%
    16:00 +8°C° 0 mm 4 mps 746 mmHg 54%
    17:00 +8°C° 0 mm 3 mps 746 mmHg 59%
    18:00 +7°C° 0 mm 3 mps 746 mmHg 64%
    19:00 +7°C° 0 mm 3 mps 746 mmHg 66%
    20:00 +5°C° 0 mm 4 mps 746 mmHg 69%
    21:00 +5°C° 0 mm 4 mps 746 mmHg 72%
    22:00 +5°C° 0 mm 5 mps 745 mmHg 71%
    23:00 +5°C° 0 mm 5 mps 744 mmHg 70%

    Day after tomorrow, 27 September, Thursday

    Time Temperature Precipitation Wind Pressure Humidity
    00:00 +4°C° 0 mm 6 mps 744 mmHg 69%
    01:00 +4°C° 0 mm 7 mps 743 mmHg 67%
    02:00 +5°C° 0 mm 7 mps 742 mmHg 65%
    03:00 +5°C° 0 mm 8 mps 741 mmHg 64%
    04:00 +3°C° 0.7 mm 9 mps 740 mmHg 68%
    05:00 +3°C° 0.7 mm 9 mps 739 mmHg 72%
    06:00 +3°C° 0.7 mm 10 mps 738 mmHg 77%
    07:00 +3°C° 0.9 mm 10 mps 737 mmHg 79%
    08:00 +3°C° 0.9 mm 10 mps 736 mmHg 81%
    09:00 +3°C° 0.9 mm 10 mps 736 mmHg 83%
    10:00 +5°C° 0.4 mm 10 mps 735 mmHg 84%
    11:00 +6°C° 0.4 mm 10 mps 735 mmHg 84%
    12:00 +6°C° 0.4 mm 9 mps 735 mmHg 85%
    13:00 +7°C° 0.4 mm 9 mps 735 mmHg 85%
    14:00 +7°C° 0.4 mm 9 mps 734 mmHg 86%
    15:00 +7°C° 0.4 mm 8 mps 734 mmHg 86%
    16:00 +7°C° 0.2 mm 8 mps 735 mmHg 85%
    17:00 +8°C° 0.2 mm 7 mps 735 mmHg 84%
    18:00 +8°C° 0.2 mm 6 mps 735 mmHg 83%
    19:00 +8°C° 0 mm 6 mps 736 mmHg 83%
    20:00 +7°C° 0 mm 5 mps 736 mmHg 83%
    21:00 +6°C° 0 mm 4 mps 737 mmHg 83%
    22:00 +6°C° 0 mm 4 mps 737 mmHg 84%
    23:00 +6°C° 0 mm 5 mps 738 mmHg 84%

    28 September, Friday

    Time Temperature Precipitation Wind Pressure Humidity
    00:00 +5°C° 0 mm 5 mps 738 mmHg 85%
    01:00 +5°C° 0 mm 5 mps 738 mmHg 85%
    02:00 +5°C° 0 mm 5 mps 739 mmHg 86%
    03:00 +3°C° 0 mm 5 mps 739 mmHg 86%
    04:00 +3°C° 0 mm 5 mps 739 mmHg 87%
    05:00 +4°C° 0 mm 4 mps 739 mmHg 88%
    06:00 +3°C° 0 mm 4 mps 739 mmHg 89%
    07:00 +5°C° 0 mm 5 mps 739 mmHg 85%
    08:00 +6°C° 0 mm 5 mps 739 mmHg 80%
    09:00 +7°C° 0 mm 6 mps 739 mmHg 76%
    10:00 +9°C° 0 mm 7 mps 738 mmHg 73%
    11:00 +11°C° 0 mm 8 mps 737 mmHg 70%
    12:00 +13°C° 0 mm 9 mps 737 mmHg 67%
    13:00 +13°C° 0 mm 9 mps 736 mmHg 71%
    14:00 +13°C° 0 mm 10 mps 735 mmHg 75%
    15:00 +13°C° 0 mm 10 mps 734 mmHg 79%
    16:00 +12°C° 0.3 mm 9 mps 734 mmHg 80%
    17:00 +12°C° 0.3 mm 9 mps 734 mmHg 82%
    18:00 +12°C° 0.3 mm 9 mps 733 mmHg 84%
    19:00 +12°C° 0.5 mm 9 mps 733 mmHg 84%
    20:00 +12°C° 0.5 mm 8 mps 734 mmHg 84%
    21:00 +12°C° 0.5 mm 8 mps 734 mmHg 83%
    22:00 +11°C° 0.1 mm 8 mps 735 mmHg 84%
    23:00 +9°C° 0.1 mm 7 mps 736 mmHg 84%

    29 September, Saturday

    Time Temperature Precipitation Wind Pressure Humidity
    00:00 +7°C° 0.1 mm 6 mps 737 mmHg 84%
    01:00 +6°C° 0 mm 5 mps 738 mmHg 85%
    02:00 +5°C° 0 mm 5 mps 739 mmHg 85%
    03:00 +3°C° 0 mm 4 mps 740 mmHg 86%
    04:00 +3°C° 0 mm 3 mps 740 mmHg 87%
    05:00 +2°C° 0 mm 3 mps 741 mmHg 88%
    06:00 +2°C° 0 mm 2 mps 742 mmHg 89%
    07:00 +2°C° 0 mm 3 mps 742 mmHg 83%
    08:00 +3°C° 0 mm 3 mps 743 mmHg 77%
    09:00 +4°C° 0 mm 3 mps 743 mmHg 71%
    10:00 +5°C° 0 mm 3 mps 744 mmHg 63%
    11:00 +7°C° 0 mm 3 mps 744 mmHg 55%
    12:00 +8°C° 0 mm 3 mps 745 mmHg 48%
    13:00 +8°C° 0 mm 3 mps 745 mmHg 47%
    14:00 +8°C° 0 mm 3 mps 745 mmHg 46%
    15:00 +8°C° 0 mm 2 mps 745 mmHg 46%
    16:00 +8°C° 0 mm 2 mps 745 mmHg 49%
    17:00 +7°C° 0 mm 2 mps 745 mmHg 53%
    18:00 +8°C° 0 mm 1 mps 745 mmHg 57%
    19:00 +7°C° 0 mm 1 mps 746 mmHg 59%
    20:00 +6°C° 0 mm 1 mps 746 mmHg 61%
    21:00 +5°C° 0 mm 1 mps 747 mmHg 64%
    22:00 +5°C° 0 mm 1 mps 747 mmHg 65%
    23:00 +4°C° 0 mm 1 mps 747 mmHg 66%

    30 September, Sunday

    Time Temperature Precipitation Wind Pressure Humidity
    00:00 +4°C° 0 mm 1 mps 747 mmHg 68%
    01:00 +4°C° 0 mm 1 mps 748 mmHg 69%
    02:00 +4°C° 0 mm 1 mps 748 mmHg 70%
    03:00 +3°C° 0 mm 1 mps 748 mmHg 71%
    04:00 +3°C° 0 mm 1 mps 748 mmHg 71%
    05:00 +3°C° 0 mm 1 mps 748 mmHg 72%
    06:00 +3°C° 0 mm 1 mps 749 mmHg 73%
    07:00 +4°C° 0 mm 1 mps 749 mmHg 69%
    08:00 +5°C° 0 mm 1 mps 749 mmHg 65%
    09:00 +6°C° 0 mm 1 mps 749 mmHg 61%
    10:00 +7°C° 0 mm 2 mps 749 mmHg 57%
    11:00 +8°C° 0 mm 2 mps 749 mmHg 53%
    12:00 +9°C° 0 mm 2 mps 749 mmHg 49%
    13:00 +10°C° 0 mm 2 mps 749 mmHg 48%
    14:00 +10°C° 0 mm 2 mps 748 mmHg 47%
    15:00 +10°C° 0 mm 3 mps 748 mmHg 46%
    16:00 +9°C° 0 mm 2 mps 748 mmHg 51%
    17:00 +8°C° 0 mm 2 mps 747 mmHg 56%
    18:00 +7°C° 0 mm 2 mps 747 mmHg 60%
    19:00 +7°C° 0 mm 2 mps 747 mmHg 61%
    20:00 +6°C° 0 mm 2 mps 747 mmHg 62%
    21:00 +5°C° 0 mm 2 mps 747 mmHg 62%
    22:00 +5°C° 0 mm 2 mps 747 mmHg 63%
    23:00 +5°C° 0 mm 2 mps 747 mmHg 63%
    Show more